Regional Weather Roundup
Issued by NWS

Home | Current Version | Previous Version | Graphics & Text | Print | Product List | Glossary On
Versions: 1 2 3 4 5 6 7 8 9 10 11 12 13 14 15 16 17 18 19 20 21 22 23 24 25 26 27 28 29 30 31 32 33 34 35 36 37 38 39 40 41 42 43 44 45 46 47 48 49 50
000
ASUS43 KMKX 200611
RWRWI

WISCONSIN REGIONAL WEATHER ROUNDUP
NATIONAL WEATHER SERVICE MILWAUKEE/SULLIVAN WI
1200 AM CST SAT DEC 20 2014

NOTE: "FAIR" INDICATES FEW OR NO CLOUDS BELOW 12,000 FEET WITH NO
SIGNIFICANT WEATHER AND/OR OBSTRUCTIONS TO VISIBILITY.

WIZ001-002-006>008-014>016-023>028-200700-
NORTHWEST WISCONSIN

CITY           SKY/WX    TMP DP  RH WIND       PRES   REMARKS
SUPERIOR ARPT  CLOUDY    27  24  89 S3        30.17F
6HR MIN TEMP:  27; 6HR MAX TEMP:  27;

ASHLAND        CLOUDY    26  22  84 S5        30.20F WCI  20
6HR MIN TEMP:  25; 6HR MAX TEMP:  26;

HAYWARD        CLOUDY    25  21  85 S5        30.17F WCI  19
6HR MIN TEMP:  25; 6HR MAX TEMP:  25;

SIREN          CLOUDY    27  23  84 S7        30.17S WCI  20
6HR MIN TEMP:  27; 6HR MAX TEMP:  27;

CUMBERLAND     CLOUDY    27  23  86 SE6       30.16F WCI  20
RICE LAKE      CLOUDY    27  22  83 SE6       30.20S WCI  20
6HR MIN TEMP:  26; 6HR MAX TEMP:  27;

CHETEK         CLOUDY    26  23  85 E5        30.19F WCI  21
6HR MIN TEMP:  26; 6HR MAX TEMP:  26;

LADYSMITH      CLOUDY    26  23  89 SE3       30.20F
6HR MIN TEMP:  25; 6HR MAX TEMP:  26;

EAU CLAIRE     CLOUDY    28  21  75 SE5       30.20F WCI  23
6HR MIN TEMP:  27; 6HR MAX TEMP:  28;

MENOMONIE      CLOUDY    28  24  82 SE6       30.20F WCI  22
6HR MIN TEMP:  28; 6HR MAX TEMP:  28;

NEW RICHMOND   CLOUDY    28  25  88 SE8       30.17F WCI  20
6HR MIN TEMP:  27; 6HR MAX TEMP:  28;

OSCEOLA        CLOUDY    29  25  85 SE8       30.20S WCI  21
6HR MIN TEMP:  28; 6HR MAX TEMP:  29;

$$

WIZ003>005-009-010-017-018-200700-
NORTH CENTRAL WISCONSIN

CITY           SKY/WX    TMP DP  RH WIND       PRES   REMARKS
MANITOWISH WTR CLOUDY    21  21  99 CALM      30.17F
6HR MIN TEMP:  21; 6HR MAX TEMP:  21;

ARBOR VITAE    CLOUDY    23  21  91 CALM      30.17F
6HR MIN TEMP:  22; 6HR MAX TEMP:  23;

WOODRUFF       CLOUDY    23  21  91 CALM      30.17F
6HR MIN TEMP:  22; 6HR MAX TEMP:  23;

RHINELANDER    CLOUDY    20  18  92 CALM      30.18F
6HR MIN TEMP:  18; 6HR MAX TEMP:  21;

EAGLE RIVER    CLOUDY    19  18  98 CALM      30.18S
6HR MIN TEMP:  12; 6HR MAX TEMP:  19;

LAND O LAKES   CLOUDY    17  16  94 CALM      30.18F
6HR MIN TEMP:   9; 6HR MAX TEMP:  17;

PHILLIPS       CLOUDY    23  21  93 S3        30.17F
6HR MIN TEMP:  22; 6HR MAX TEMP:  23;

TOMAHAWK       CLOUDY    22  20  91 CALM      30.19F
6HR MIN TEMP:  20; 6HR MAX TEMP:  22;

MEDFORD        CLOUDY    22  20  91 S6        30.19S WCI  15
6HR MIN TEMP:  22; 6HR MAX TEMP:  23;

MERRILL        CLOUDY    23  21  91 CALM      30.20F
6HR MIN TEMP:  22; 6HR MAX TEMP:  23;

$$

WIZ029-030-035-036-043>047-200700-
CENTRAL WISCONSIN

CITY           SKY/WX    TMP DP  RH WIND       PRES   REMARKS
WAUSAU         CLOUDY    23  20  88 S3        30.20F
6HR MIN TEMP:  22; 6HR MAX TEMP:  24;

MOSINEE        CLOUDY    23  23 100 S3        30.23S
MARSHFIELD     CLOUDY    24  20  84 S8        30.21F WCI  15
6HR MIN TEMP:  23; 6HR MAX TEMP:  24;

STEVENS POINT  CLOUDY    22  20  89 S6        30.24S WCI  15
6HR MIN TEMP:  21; 6HR MAX TEMP:  23;

WAUPACA        CLOUDY    27  21  80 CALM      30.26S
6HR MIN TEMP:  23; 6HR MAX TEMP:  27;

WAUTOMA        CLOUDY    25  21  84 CALM      30.27R
6HR MIN TEMP:  25; 6HR MAX TEMP:  27;

WISC RAPIDS    CLOUDY    22  18  85 S3        30.26R
6HR MIN TEMP:  22; 6HR MAX TEMP:  24;

CAMP DOUGLAS   CLOUDY    25  25 100 SE5       30.24S WCI  19
6HR MIN TEMP:  22; 6HR MAX TEMP:  26;

$$

WIZ011>013-019>022-031-037>040-048>050-200700-
NORTHEAST WISCONSIN

CITY           SKY/WX    TMP DP  RH WIND       PRES   REMARKS
ANTIGO         PTCLDY    16  15  96 E3        30.20S
6HR MIN TEMP:  13; 6HR MAX TEMP:  20;

SHAWANO        PTCLDY    18  15  90 CALM      30.26S
6HR MIN TEMP:  18; 6HR MAX TEMP:  26;

OCONTO         PTCLDY    14  14  98 CALM      30.27S
6HR MIN TEMP:  14; 6HR MAX TEMP:  20;

STURGEON BAY   PTCLDY    19  16  86 CALM      30.27S
6HR MIN TEMP:  18; 6HR MAX TEMP:  23;

GREEN BAY      PTCLDY    20  18  92 S3        30.27R
6HR MIN TEMP:  20; 6HR MAX TEMP:  27;

MANITOWOC      CLOUDY    28  24  85 N5        30.27S WCI  23
6HR MIN TEMP:  27; 6HR MAX TEMP:  30;

APPLETON       PTCLDY    21  18  86 CALM      30.26S
CLINTONVILLE   PTCLDY    19  18  93 CALM      30.26S
OSHKOSH        PTCLDY    20  17  88 CALM      30.26S
6HR MIN TEMP:  20; 6HR MAX TEMP:  27;

$$

WIZ032>034-041-042-053>061-200700-
SOUTHWEST WISCONSIN

CITY           SKY/WX    TMP DP  RH WIND       PRES   REMARKS
LA CROSSE      CLOUDY    30  22  72 S7        30.24S WCI  23
6HR MIN TEMP:  30; 6HR MAX TEMP:  30;

SPARTA         CLOUDY    28  21  75 S5        30.25S WCI  23
6HR MIN TEMP:  28; 6HR MAX TEMP:  29;

VIROQUA        CLOUDY    27  23  85 CALM      30.21S
6HR MIN TEMP:  26; 6HR MAX TEMP:  28;

BOSCOBEL       CLOUDY    29  22  75 CALM      30.26S
6HR MIN TEMP:  27; 6HR MAX TEMP:  30;

PRAIRIE DU CHI CLOUDY    29  22  75 E3        30.25S
6HR MIN TEMP:  28; 6HR MAX TEMP:  29;

PLATTEVILLE    CLOUDY    27  24  85 CALM      30.24S
6HR MIN TEMP:  27; 6HR MAX TEMP:  29;

$$

WIZ056-057-062-063-064-067-068-200700-
SOUTH CENTRAL WISCONSIN

CITY           SKY/WX    TMP DP  RH WIND       PRES   REMARKS
REEDSBURG      CLOUDY    24  21  91 CALM      30.25S
6HR MIN TEMP:  22; 6HR MAX TEMP:  25;

BARABOO/DELLS  CLOUDY    24  21  89 CALM      30.25S
6HR MIN TEMP:  20; 6HR MAX TEMP:  25;

LONE ROCK      CLOUDY    30  22  72 E5        30.26S WCI  25
6HR MIN TEMP:  28; 6HR MAX TEMP:  31;

MINERAL POINT  CLOUDY    28  25  86 SE5       30.23S WCI  23
MADISON        CLOUDY    26  21  81 S3        30.26R
6HR MIN TEMP:  23; 6HR MAX TEMP:  27;

MIDDLETON      CLOUDY    27  23  84 CALM      30.26S
6HR MIN TEMP:  25; 6HR MAX TEMP:  28;

WATERTOWN      MOCLDY    19  18  96 CALM      30.26S
6HR MIN TEMP:  19; 6HR MAX TEMP:  26;

MONROE         CLOUDY    27  25  93 CALM      30.24S
JANESVILLE     CLOUDY    28  23  80 CALM      30.26S
$$

WIZ051-052-058>065-066-070>072-200700-
SOUTHEAST WISCONSIN

CITY           SKY/WX    TMP DP  RH WIND       PRES   REMARKS
MILWAUKEE      CLOUDY    28  19  69 SW3       30.26S
6HR MIN TEMP:  27; 6HR MAX TEMP:  29;

WAUKESHA       CLOUDY    23  19  86 CALM      30.26S
MILWAUKEE/TIMM CLOUDY    27  21  80 CALM      30.27S
RACINE         CLOUDY    28  20  71 CALM      30.28S
6HR MIN TEMP:  28; 6HR MAX TEMP:  28;

BURLINGTON     CLOUDY    25  20  83 CALM      30.26S
6HR MIN TEMP:  24; 6HR MAX TEMP:  26;

KENOSHA        CLOUDY    27  21  78 CALM      30.26S
6HR MIN TEMP:  27; 6HR MAX TEMP:  28;

FOND DU LAC    PTCLDY    20  16  84 CALM      30.26S
6HR MIN TEMP:  20; 6HR MAX TEMP:  28;

SHEBOYGAN      CLOUDY    28  21  75 NW6       30.26R WCI  22
6HR MIN TEMP:  27; 6HR MAX TEMP:  29;

WEST BEND      CLOUDY    23  19  86 CALM      30.25S
JUNEAU         MOCLDY    20  18  91 CALM      30.27R
6HR MIN TEMP:  20; 6HR MAX TEMP:  26;

$$

LSZ147-162-200700-
LAKE SUPERIOR

STATION/POSITION TIME  TEMP    WIND        PRES    WAVE
                       AIR SEA DIR/SP/G            HT/PER
                 (UTC) (F)     (DEG/KT/KT) (MB)    (FT/S)
DEVILS ISLAND    0600   27     170/  5/  7 1023.4F
PORT WING        0500   27     200/  3/  5 1022.7
SAXON HARBOR     0500   26      CALM  /  5 1022.7F
$$

LMZ867-665-643>646-200700-
LAKE MICHIGAN

STATION/POSITION TIME  TEMP    WIND        PRES    WAVE



USA.gov is the U.S. government's official web portal to all federal, state and local government web resources and services.